OE3GWU-13 Weather Reports


Display with metric or nautical units.
time (UTC)temp
F
wind
direction
speed
MPH
gust
MPH
rain 1hr
in
rain 24hr
in
rain mn
in
humidity
%
barometer
mb
20260506134004 70 156 3.0 6.0 0.00 0.02 0.01 43 1009.8
20260506133005 70 203 3.0 6.0 0.00 0.02 0.01 43 1009.8
20260506130005 66 186 6.0 10.0 0.00 0.02 0.01 47 1010.2
20260506125006 68 196 2.0 8.0 0.00 0.02 0.01 45 1010.2
20260506124004 66 230 6.0 8.0 0.00 0.02 0.01 46 1010.5
20260506123004 65 165 3.0 5.0 0.00 0.02 0.01 47 1010.8
20260506122004 70 223 3.0 6.0 0.00 0.02 0.01 44 1010.5
20260506121004 66 198 2.0 6.0 0.00 0.02 0.01 51 1010.8
20260506115004 66 170 5.0 12.0 0.00 0.02 0.01 47 1010.8
20260506112004 63 188 3.0 9.0 0.00 0.02 0.01 53 1011.5
20260506111004 63 248 7.0 9.0 0.00 0.02 0.01 53 1011.5
20260506110004 63 227 5.0 6.0 0.00 0.02 0.01 57 1011.5
20260506104004 63 222 6.0 7.0 0.00 0.02 0.01 60 1011.5
20260506103004 64 232 5.0 6.0 0.00 0.02 0.01 58 1011.9
20260506101004 62 243 2.0 6.0 0.00 0.02 0.01 61 1011.9
20260506093004 62 215 3.0 5.0 0.00 0.02 0.01 61 1011.9
20260506091004 61 196 2.0 3.0 0.00 0.02 0.01 60 1012.2
20260506090004 60 341 2.0 3.0 0.00 0.02 0.01 62 1012.2
20260506082004 59 253 4.0 6.0 0.00 0.02 0.01 71 1012.5
20260506072004 55 215 3.0 6.0 0.00 0.02 0.01 77 1012.2
20260506062004 53 250 2.0 3.0 0.00 0.02 0.01 87 1012.5
20260506061004 54 307 2.0 3.0 0.00 0.02 0.01 88 1012.2
20260506051004 50 241 3.0 5.0 0.00 0.02 0.01 96 1012.4
20260506045004 47 313 2.0 3.0 0.01 0.02 0.01 99 1012.6
20260506044004 47 340 0.0 3.0 0.01 0.02 0.01 99 1012.9
20260506042004 47 292 2.0 6.0 0.01 0.02 0.01 99 1012.5
20260506041004 46 220 3.0 5.0 0.01 0.02 0.01 99 1012.9
20260506040004 45 195 3.0 3.0 0.01 0.02 0.01 99 1012.5
20260506034004 45 210 2.0 6.0 0.00 0.01 0.00 99 1012.2
20260506033005 46 198 3.0 3.0 0.00 0.01 0.00 99 1012.2
20260506032004 46 250 1.0 2.0 0.00 0.01 0.00 99 1011.9
20260506031004 45 260 2.0 2.0 0.00 0.01 0.00 99 1012.2
20260506030004 45 330 0.0 0.0 0.00 0.01 0.00 99 1012.2
20260506022004 45 347 0.0 0.0 0.00 0.01 0.00 98 1012.5
20260506021115 46 341 0.0 1.0 0.00 0.01 0.00 98 1012.5
20260506020004 46 348 0.0 0.0 0.00 0.01 0.00 97 1012.9
20260506012004 49 271 1.0 2.0 0.00 0.01 0.00 95 1012.5
20260506011004 49 267 1.0 3.0 0.00 0.01 0.00 95 1012.5
20260506005004 49 350 1.0 5.0 0.00 0.01 0.00 97 1012.5
20260506004004 49 15 3.0 5.0 0.00 0.01 0.00 97 1012.5
20260506001004 50 63 0.0 6.0 0.00 0.01 0.00 94 1012.4
20260505235004 50 332 0.0 1.0 0.00 0.01 0.01 92 1012.2
20260505234004 50 350 1.0 1.0 0.00 0.01 0.01 91 1012.2
20260505233004 50 355 0.0 2.0 0.00 0.01 0.01 90 1012.2
20260505232004 49 343 0.0 0.0 0.00 0.01 0.01 92 1012.2
20260505231004 49 353 0.0 3.0 0.00 0.01 0.01 94 1011.9
20260505230004 48 301 1.0 3.0 0.00 0.01 0.01 94 1011.9
20260505225004 48 352 0.0 0.0 0.00 0.01 0.01 98 1011.9
20260505223004 49 19 1.0 1.0 0.00 0.01 0.01 97 1011.5
20260505222004 49 347 0.0 1.0 0.00 0.01 0.01 97 1011.5
20260505215004 50 329 0.0 2.0 0.01 0.01 0.01 96 1011.2
20260505213004 52 354 0.0 3.0 0.01 0.01 0.01 93 1011.2
20260505212004 52 323 1.0 2.0 0.01 0.01 0.01 92 1010.8
20260505205004 53 351 0.0 6.0 0.00 0.00 0.00 89 1011.5
20260505203004 54 180 6.0 8.0 0.00 0.00 0.00 83 1011.5
20260505195004 57 332 2.0 5.0 0.00 0.00 0.00 71 1011.2
20260505194004 58 124 2.0 5.0 0.00 0.00 0.00 70 1010.8
20260505192004 59 202 7.0 12.0 0.00 0.00 0.00 64 1010.5
20260505185004 58 351 0.0 0.0 0.00 0.00 0.00 64 1009.5
20260505183004 60 351 0.0 0.0 0.00 0.00 0.00 58 1009.5
20260505182004 60 348 0.0 0.0 0.00 0.00 0.00 54 1009.5
20260505180004 64 341 0.0 1.0 0.00 0.00 0.00 48 1009.5
20260505173004 65 199 2.0 2.0 0.00 0.00 0.00 45 1009.5
20260505172004 65 338 0.0 5.0 0.00 0.00 0.00 46 1009.5
20260505170004 65 305 1.0 2.0 0.00 0.00 0.00 45 1009.8
20260505164004 67 221 5.0 7.0 0.00 0.00 0.00 41 1009.5
20260505163004 67 205 5.0 7.0 0.00 0.00 0.00 41 1009.8
20260505161004 67 191 3.0 5.0 0.00 0.00 0.00 41 1009.8
20260505151004 71 311 1.0 5.0 0.00 0.00 0.00 38 1010.2